Orbital Elements
Epoch 2010 Oct. 11.0 TT = JDT 2455480.5
T 2010 Sept. 29.47725 TT MPC
q 3.4243209 (2000.0) P Q
n 0.11280064 Peri. 17.93313 -0.66982288 -0.73899137
a 4.2422378 Node 114.18851 +0.67117232 -0.64423657
e 0.1928032 Incl. 4.54673 +0.31759254 -0.19710656
P 8.74
From 592 observations 2000 Nov. 24-2012 Apr. 28, mean residual 0".6.
|